SL-16 R/B DEB

Satellite information

Favourite Embed

Satellite Type and Status

DEBRISIN ORBIT

Key statistics

Satellite SL-16 R/B DEB at a glance.

Uptime

12041

Days in orbit

Revolutions

≈ 14.2

Per day

Orbit

LEO

Low Earth Orbit

Inclination

71.0

Latest

Satellite identification and parameters

Extended collection of information and parameters for SL-16 R/B DEB.

Object identification

Identified? True

Debris? True

Object name: SL-16 R/B DEB

International designator: 1992-093LX

Object number (NORAD): 49050

Object ID (CCSDS): 49050

Country: COMMONWEALTH OF INDEPENDENT STATES (CIS)

Current information (Y/N): Y

Orbital parameters

Period: 101.55 minutes

Inclination: 71.019 deg

SMA: 7210.214 km

Apoapsis: 836.063 km

Periapsis: 828.096 km

RAAN: 188.1241 deg

Eccentricy: 0.00055244

Argument of periapsis: 60.9668 deg

Mean anomaly: 299.2009 deg

Mean motion: 14.18013923 rev/day

Mean motion (dot): 0.00026786 rev/day2

B* drag term: 0.013044195 1/REarth

Two-line elements (TLE)

Creation date: Dec. 12, 2025, 3:16 a.m.

Reference frame: TEME

Reference center: EARTH

Epoch: Dec. 11, 2025, 11:44 p.m. UTC

TLE line 0: 0 SL-16 R/B DEB

TLE line 1: 1 49050U 92093LX 25345.98923098 .00026786 00000-0 13044-1 0 9990

TLE line 2: 2 49050 71.0190 188.1241 0005524 60.9668 299.2009 14.18013923 6609

Live tracking on map

Real-time ground track for satellite SL-16 R/B DEB.

In-orbit conjunctions

A list of the most updated potential collisions computed for object SL-16 R/B DEB.

Target Orbit TCA Probability of collision Miss distance Type
FENGYUN 1C DEB SSO 2025-12-15 11:23:22 0.0002326856 570.0 (m) DEBRIS
FENGYUN 1C DEB SSO 2025-12-07 22:56:03 0.000112617 897.0 (m) DEBRIS
NOAA 7 SSO 2025-11-25 07:00:05 0.0002398707 666.0 (m) PAYLOAD

Associated space launch

Second generation ELING satellite

SL-16 R/B DEB was lifted into orbit during the mission ‘Zenit-2 | Tselina-2 12’, on board a Zenit-2 space rocket.

The launch took place on Dec. 25, 1992, 5:56 a.m. from 45/1.

For more information about the launch, click the button.

Launch to space Zenit-2 | Tselina-2 12
Zenit-2 | Tselina-2 12

Agency: N/A

Status: Launch Successful

Launch date: Dec. 25, 1992, 5:56 a.m. UTC

Rocket: Zenit-2

Launch pad: 45/1

Location: Baikonur Cosmodrome, Republic of Kazakhstan

...

Latest news about this satellite

There are no fresh news available about this satellite. Check back as we update our databases every day.


Newsletter sign-up

Weekly statistics, charts and insights to help you stay on top of the space industry.